Starlink 30243

operational
NORAD ID: 57648 Int'l Des: 2023-122 Owner: SPXS Country: US Constellation: starlink
LEOCIRCULAR

About Starlink 30243

Description loading...

Live Position

Loading 3D Globe...

Upcoming Passes

Altitude History

Altitude vs Time

uPlot chart will show altitude changes over time

Two-Line Element Set

1 57648U 23122S 26062.16668981 .01258169 00000-0 57981-1 0 9994
2 57648 43.0005 129.1150 0001921 257.9947 39.9503 15.16915880 5579
Epoch: Mar 3, 2026 • Age: 20 hours

Current Status

Altitude 522.0 km
Velocity 7.60 km/s
Sub-Earth Point -41.53°S, 42.98°W
Launch Date Aug 17, 2023
Age 2.5 years
Type internet

Technical Details

Classification Payload
Mass 730.00 kg
Dry Mass 700.00 kg
Total Mass 730.00 kg
Length 0.30 m
Diameter 4.10 m
Span 29.00 m
Shape Box + pan
Manufacturer SPXS
Bus Type Starlink V2M
Phase Status In Orbit
Owner/State SPXS/US

Large Constellations

Loading constellations...